Downstream station:
SHEF ID: ADDO2 Cow Creek nr Addington, OK
STATION TYPE:
PRECIP STAGE RIV-FLOW BAT-LOAD
in ft cfs volt
Ccp-Rev Ccp-Rev Ccp-Rev Ccp-Rev
(US/Central)
11/21 00:00 0.00 2.23 0 12.83
11/21 01:00 0.00 2.24 0 12.83
11/21 02:00 0.00 2.24 0 12.83
11/21 03:00 0.00 2.26 0 12.77
11/21 04:00 0.00 2.26 0 12.77
11/21 05:00 0.00 2.26 0 12.71
11/21 06:00 0.00 2.26 0 12.71
11/21 07:00 0.00 2.26 0 12.65
11/21 08:00 0.00 2.27 0 12.71
11/21 09:00 0.00 2.26 0 13.07
11/21 10:00 0.00 2.28 0 13.65
11/21 11:00 0.00 2.28 0 13.65
11/21 12:00 0.00 2.28 0 13.48
11/21 13:00 0.00 2.28 0 13.59
11/21 14:00 0.00 2.30 0 13.53
11/21 15:00 0.00 2.31 0 13.59
11/21 16:00 0.00 2.31 0 13.71
11/21 17:00 0.00 2.29 0 13.36
11/21 18:00 0.00 2.28 0 13.00
11/21 19:00 0.00 2.27 0 12.89
11/21 20:00 0.00 2.26 0 12.83
11/21 21:00 0.00 2.25 0 12.83
11/21 22:00 0.00 2.24 0 12.77
11/21 23:00 0.00 2.24 0 12.77